Location: Acts Church of Fort Worth
(32.6786°N, 97.2668°W)
Time: 23:01:17
(UTC+00:00)

ARIANE 6 FM1 Upper Stage - Pass Details

Date: 18 January 2026
Orbit: 522 x 609 km, 62.0° (Epoch: 13 February)

Event Time Altitude Azimuth Distance (km) Brightness Sun altitude
Exits shadow 11:41:51 44° 192° (SSW) 742 3.2 -22.7°
Drops below altitude 10° 11:44:55 10° 163° (SSE) 1,801 5.6 -22.0°
Sets 11:47:10 0° 159° (SSE) 2,704 6.6 -21.6°
